Location: Igri�s
(42.2144°N, 0.4320°W)
Time: 13:19:04
(UTC+00:00)

Cosmos 2333 Rocket - Pass Details

Date: 13 August 2020
Orbit: 838 x 864 km, 70.8° (Epoch: 24 September)

Event Time Altitude Azimuth Distance (km) Brightness Sun altitude
Rises 21:30:57 0° 346° (NNW) 3,453 6.4 -23.1°
Reaches altitude 10° 21:34:12 10° 4° (N) 2,511 5.2 -23.5°
Maximum altitude 21:38:13 19° 48° (NE) 1,944 4.1 -24.0°
Enters shadow 21:39:47 17° 69° (ENE) 2,037 4.0 -24.2°
